[[{"header":{"parameterUnit":"m.s-1","parameterCategory":1,"la1":30.2991,"la2":30.254,"lo1":-89.0895,"lo2":-89.0444,"dy":0.0017,"dx":0.0017,"nx":28,"ny":28,"refTime":"2025-02-07T09:00:00:Z","depth":0,"parameterNumber":2,"parameterNumberName":"U-component_of_WINDS"},"data":[0,0,0,0,0,0,0,0,0,0,0,0,0,0,0,0,0,0,0,0,0,0,0,0,0,0,0,0,0,0,0,0,0,0,0,0,0,0,0,0,0,0,0,0,0,0,0,0,0,0,0,0,0,0,0,0,0,0,-2.0693,-2.0692,0,-2.0665,-2.0664,-2.0664,-2.0602,-2.06,-2.0599,-2.0598,-2.0571,-2.0572,-2.0572,0,0,0,0,0,0,0,0,0,0,0,0,0,-2.0695,-2.0695,-2.0693,-2.0692,-2.0692,-2.0665,-2.0664,-2.0664,-2.0602,-2.06,-2.0599,-2.0597,-2.0571,-2.0572,-2.0572,0,0,0,0,0,0,0,0,0,0,0,0,0,-2.0683,-2.0695,-2.0693,-2.0658,-2.0654,-2.0665,-2.0664,-2.0664,-2.0602,-2.06,-2.0598,-2.0597,-2.0571,-2.0572,-2.0572,-2.0615,0,0,-2.0575,-2.0575,0,0,0,0,0,0,0,0,-2.0684,-2.0683,-2.0663,-2.066,-2.0656,-2.0635,-2.0655,-2.0648,-2.0603,-2.0622,-2.0598,-2.0596,-2.0594,-2.0593,-2.0592,-2.0614,-2.0613,-2.0575,-2.0575,-2.0575,-2.0576,0,0,0,0,0,0,0,-2.0685,-2.0684,-2.0682,-2.0663,-2.0659,-2.0644,-2.064,-2.0653,-2.0619,-2.062,-2.0616,-2.0613,-2.0592,-2.0591,-2.0591,-2.0613,-2.0575,-2.0575,-2.0576,-2.0576,-2.0668,-2.067,0,0,0,0,0,0,-2.069,-2.0685,-2.0683,-2.0681,-2.0665,-2.0646,-2.0641,-2.0644,-2.0619,-2.0613,-2.0615,-2.061,-2.0591,-2.059,-2.059,-2.0637,-2.0575,-2.0576,-2.0577,-2.0666,-2.0669,-2.0671,0,0,0,0,0,0,-2.069,-2.0691,-2.0684,-2.0682,-2.068,-2.0648,-2.0651,-2.0644,-2.0643,-2.0615,-2.0609,-2.062,-2.0589,-2.0589,-2.0609,-2.0636,-2.0576,-2.0577,-2.0664,-2.0667,-2.067,-2.0734,0,0,0,0,0,0,-2.0691,-2.0691,-2.0706,-2.0682,-2.068,-2.0703,-2.0652,-2.0645,-2.0645,-2.0638,-2.0618,-2.0613,-2.0588,-2.0608,-2.061,-2.0636,-2.0578,-2.0662,-2.0665,-2.0669,-2.073,-2.0739,-2.0747,0,0,0,0,0,-2.0691,-2.0726,-2.0708,-2.0708,-2.0698,-2.0705,-2.0704,-2.0673,-2.0647,-2.0662,-2.0644,-2.0614,-2.0633,-2.0611,-2.0612,-2.0639,-2.066,-2.0664,-2.0669,-2.0726,-2.0737,-2.0747,0,0,0,0,0,0,-2.0755,-2.0722,-2.0701,-2.073,-2.072,-2.0694,-2.0713,-2.0687,-2.0685,-2.0679,-2.0642,-2.0639,-2.0664,-2.0654,-2.063,-2.0679,-2.0641,-2.0646,-2.0684,-2.0695,-2.0704,-2.0705,-2.0578,0,0,0,0,0,-2.0772,-2.078,-2.0751,-2.0779,-2.0775,-2.0745,-2.0747,-2.0724,-2.0713,-2.0709,-2.0693,-2.0684,-2.0688,-2.0691,-2.0693,-2.0728,-2.0723,-2.0747,-2.0756,-2.0763,-2.0768,-2.0785,-2.0795,-2.0686,-2.0686,-2.0686,0,0,-2.0808,-2.0791,-2.0798,-2.0791,-2.0781,-2.079,-2.0742,-2.0754,-2.076,-2.0711,-2.0729,-2.0717,-2.0705,-2.0733,-2.0744,-2.0725,-2.0797,-2.0769,-2.0775,-2.0776,-2.0791,-2.0801,-2.081,-2.0689,-2.0689,-2.0688,0,0,-2.0878,-2.0866,-2.0887,-2.0878,-2.0864,-2.0844,-2.0849,-2.0827,-2.0817,-2.0834,-2.0798,-2.0805,-2.0813,-2.0806,-2.0803,-2.0871,-2.0842,-2.0873,-2.0918,-2.0935,-2.0944,-2.0951,-2.0974,-2.0983,-2.0877,-2.0877,-2.0878,0,-2.0924,-2.0935,-2.0902,-2.0915,-2.0913,-2.087,-2.0891,-2.0885,-2.0872,-2.0872,-2.085,-2.0859,-2.0848,-2.0873,-2.0889,-2.0889,-2.0894,-2.0874,-2.0945,-2.0952,-2.0959,-2.098,-2.0989,-2.0881,-2.0881,-2.088,-2.088,0,-2.0993,-2.1001,-2.102,-2.1008,-2.1009,-2.1026,-2.0996,-2.1001,-2.0979,-2.0961,-2.098,-2.0965,-2.0963,-2.0968,-2.0946,-2.099,-2.0978,-2.0952,-2.0913,-2.0973,-2.0993,-2.1001,-2.0886,-2.0885,-2.0884,-2.0883,0,0,-2.11,-2.107,-2.1077,-2.1071,-2.1052,-2.1058,-2.1075,-2.1072,-2.1076,-2.107,-2.1082,-2.109,-2.1065,-2.1062,-2.104,-2.1055,-2.1109,-2.1027,-2.1026,-2.1041,-2.1155,-2.1174,-2.1184,-2.1091,-2.1092,-2.1093,-2.1156,0,-2.1164,-2.1189,-2.116,-2.119,-2.1198,-2.1157,-2.1171,-2.1161,-2.1145,-2.115,-2.1133,-2.1138,-2.1106,-2.1104,-2.1117,-2.1099,-2.1131,-2.1095,-2.1101,-2.1102,-2.1104,-2.1194,-2.1214,-2.1274,-2.1163,-2.1164,-2.1165,0,-2.1242,-2.1238,-2.1269,-2.1248,-2.125,-2.1263,-2.1258,-2.1263,-2.1252,-2.1239,-2.1236,-2.1209,-2.1224,-2.1188,-2.1207,-2.1184,-2.1185,-2.1177,-2.1178,-2.1177,-2.1136,-2.1194,-2.1292,-2.1301,-2.1177,-2.1176,-2.1176,0,-2.1316,-2.1319,-2.1337,-2.1334,-2.131,-2.132,-2.1311,-2.1297,-2.1298,-2.1294,-2.1294,-2.1293,-2.1292,-2.1291,-2.1265,-2.1241,-2.1288,-2.125,-2.1277,-2.1278,-2.1288,-2.1287,-2.1386,-2.1292,-2.1291,-2.1291,-2.1291,0,-2.1389,-2.141,-2.137,-2.1382,-2.1404,-2.1371,-2.1394,-2.138,-2.1369,-2.1377,-2.1343,-2.1352,-2.1317,-2.1323,-2.1302,-2.1321,-2.1322,-2.1312,-2.1306,-2.1314,-2.1315,-2.1313,-2.1308,-2.1294,-2.1293,-2.1293,-2.1292,0,-2.1475,-2.1449,-2.1467,-2.1443,-2.1438,-2.1455,-2.1434,-2.1444,-2.1427,-2.1438,-2.1439,-2.1411,-2.1416,-2.139,-2.139,-2.1377,-2.1405,-2.1393,-2.1409,-2.1404,-2.1433,-2.143,-2.1533,-2.1544,-2.1444,-2.1445,-2.1446,0,-2.1523,-2.1538,-2.1515,-2.1518,-2.151,-2.1516,-2.1516,-2.1484,-2.1486,-2.1474,-2.1485,-2.1487,-2.1486,-2.1496,-2.1476,-2.1476,-2.1463,-2.1499,-2.1462,-2.147,-2.1462,-2.146,-2.1461,-2.1506,-2.1507,-2.1508,-2.1509,0,-2.1611,-2.1597,-2.1598,-2.1594,-2.1595,-2.1591,-2.1585,-2.1589,-2.1556,-2.1559,-2.1563,-2.1563,-2.1562,-2.1564,-2.156,-2.1551,-2.1525,-2.1521,-2.1527,-2.1535,-2.1542,-2.1537,-2.1428,-2.1518,-2.1517,-2.1517,-2.1516,-2.1516,-2.1678,-2.1688,-2.1674,-2.1676,-2.1668,-2.1663,-2.1671,-2.1654,-2.1657,-2.1653,-2.1635,-2.1643,-2.1631,-2.1623,-2.1616,-2.1622,-2.1604,-2.1614,-2.1616,-2.1618,-2.1623,-2.1543,-2.1621,-2.1621,-2.1621,-2.162,-2.162,0,-2.1762,-2.1751,-2.1753,-2.1745,-2.1747,-2.1722,-2.1714,-2.1717,-2.1723,-2.1714,-2.1714,-2.1719,-2.1721,-2.1701,-2.1701,-2.1709,-2.1696,-2.1709,-2.1708,-2.1706,-2.1639,-2.1633,-2.1719,-2.1719,-2.1719,-2.1719,-2.1719,-2.1719,-2.1806,-2.1823,-2.1808,-2.182,-2.1809,-2.1815,-2.1813,-2.1808,-2.18,-2.1807,-2.1808,-2.1795,-2.1782,-2.178,-2.1781,-2.1775,-2.1776,-2.1793,-2.1783,-2.172,-2.1711,-2.1701,-2.1695,-2.1793,-2.1794,-2.1849,-2.1849,-2.185]},{"header":{"parameterUnit":"m.s-1","parameterCategory":1,"la1":30.2991,"la2":30.254,"lo1":-89.0895,"lo2":-89.0444,"dy":0.0017,"dx":0.0017,"nx":28,"ny":28,"refTime":"2025-02-07T09:00:00:Z","depth":0,"parameterNumber":3,"parameterNumberName":"V-component_of_WINDS"},"data":[0,0,0,0,0,0,0,0,0,0,0,0,0,0,0,0,0,0,0,0,0,0,0,0,0,0,0,0,0,0,0,0,0,0,0,0,0,0,0,0,0,0,0,0,0,0,0,0,0,0,0,0,0,0,0,0,0,0,1.3634,1.3634,0,1.3635,1.3635,1.3635,1.3637,1.3637,1.3637,1.3637,1.3639,1.3639,1.3639,0,0,0,0,0,0,0,0,0,0,0,0,0,1.3634,1.3634,1.3634,1.3634,1.3634,1.3635,1.3635,1.3635,1.3637,1.3637,1.3637,1.3638,1.3639,1.3639,1.3639,0,0,0,0,0,0,0,0,0,0,0,0,0,1.3635,1.3634,1.3634,1.3635,1.3635,1.3635,1.3635,1.3636,1.3637,1.3637,1.3637,1.3638,1.3639,1.3639,1.3639,1.3638,0,0,1.3639,1.3639,0,0,0,0,0,0,0,0,1.3635,1.3635,1.3635,1.3635,1.3635,1.3636,1.3636,1.3636,1.3637,1.3637,1.3637,1.3638,1.3638,1.3638,1.3638,1.3638,1.3638,1.3639,1.3639,1.3639,1.3639,0,0,0,0,0,0,0,1.3635,1.3635,1.3634,1.3635,1.3635,1.3636,1.3636,1.3636,1.3637,1.3637,1.3637,1.3637,1.3638,1.3638,1.3638,1.3638,1.3639,1.3639,1.3639,1.3639,1.364,1.3641,0,0,0,0,0,0,1.3634,1.3635,1.3634,1.3635,1.3635,1.3636,1.3636,1.3636,1.3637,1.3637,1.3637,1.3637,1.3638,1.3638,1.3638,1.3639,1.3639,1.3639,1.3639,1.364,1.364,1.3641,0,0,0,0,0,0,1.3634,1.3634,1.3634,1.3635,1.3635,1.3636,1.3636,1.3636,1.3636,1.3637,1.3637,1.3637,1.3638,1.3638,1.3639,1.3639,1.3639,1.3639,1.364,1.364,1.3641,1.364,0,0,0,0,0,0,1.3634,1.3634,1.3633,1.3635,1.3635,1.3634,1.3636,1.3636,1.3636,1.3636,1.3637,1.3637,1.3638,1.3639,1.3639,1.3639,1.3639,1.364,1.364,1.364,1.364,1.364,1.364,0,0,0,0,0,1.3634,1.3632,1.3633,1.3633,1.3634,1.3634,1.3634,1.3635,1.3636,1.3636,1.3637,1.3637,1.3639,1.3639,1.3639,1.3639,1.364,1.364,1.364,1.364,1.364,1.364,0,0,0,0,0,0,1.363,1.3632,1.3633,1.3632,1.3633,1.3634,1.3634,1.3635,1.3636,1.3636,1.3637,1.3637,1.3638,1.3639,1.3638,1.364,1.364,1.364,1.364,1.364,1.364,1.364,1.3639,0,0,0,0,0,1.3629,1.3629,1.3631,1.363,1.3631,1.3632,1.3632,1.3634,1.3635,1.3635,1.3636,1.3637,1.3639,1.3639,1.364,1.364,1.3642,1.3641,1.3641,1.3641,1.3641,1.3644,1.3644,1.3641,1.3641,1.3641,0,0,1.3627,1.3628,1.3628,1.3629,1.363,1.3631,1.3632,1.3633,1.3634,1.3635,1.3636,1.3637,1.3639,1.364,1.364,1.364,1.3643,1.3641,1.3641,1.3641,1.3644,1.3644,1.3645,1.3641,1.3641,1.3641,0,0,1.3624,1.3624,1.3624,1.3626,1.3628,1.3629,1.3629,1.3631,1.3632,1.3634,1.3635,1.3637,1.3638,1.364,1.3641,1.3642,1.3643,1.3642,1.3642,1.3645,1.3645,1.3645,1.3647,1.3648,1.3642,1.3642,1.3642,0,1.3621,1.3622,1.3624,1.3625,1.3626,1.3628,1.3629,1.363,1.3632,1.3634,1.3634,1.3637,1.3638,1.3641,1.3642,1.3642,1.3643,1.3642,1.3645,1.3645,1.3645,1.3647,1.3648,1.3642,1.3642,1.3642,1.3642,0,1.3619,1.362,1.362,1.3623,1.3624,1.3625,1.3628,1.3629,1.3631,1.3633,1.3635,1.3637,1.364,1.364,1.3641,1.3644,1.3644,1.3644,1.3644,1.3646,1.3648,1.3648,1.3642,1.3642,1.3642,1.3642,0,0,1.3612,1.3618,1.3618,1.362,1.3624,1.3625,1.3627,1.363,1.3632,1.3634,1.3636,1.3639,1.364,1.3641,1.3643,1.3645,1.3648,1.3645,1.3646,1.3647,1.3653,1.3654,1.3654,1.3649,1.3649,1.3649,1.3654,0,1.361,1.3613,1.3616,1.3619,1.3621,1.3625,1.3627,1.363,1.3632,1.3635,1.3638,1.364,1.3641,1.3642,1.3644,1.3647,1.3649,1.3647,1.3652,1.3652,1.3652,1.3655,1.3655,1.3659,1.3654,1.3654,1.3654,0,1.3608,1.3611,1.3614,1.362,1.3621,1.3622,1.3627,1.3629,1.3634,1.3635,1.3638,1.3641,1.3644,1.3644,1.365,1.3648,1.3651,1.3653,1.3653,1.3654,1.3654,1.3657,1.366,1.3661,1.3655,1.3655,1.3655,0,1.3604,1.3609,1.3612,1.3614,1.362,1.3622,1.3625,1.3629,1.3632,1.3636,1.3638,1.3642,1.3645,1.3648,1.3652,1.3651,1.3658,1.3658,1.3661,1.3661,1.3662,1.3662,1.3667,1.3662,1.3662,1.3662,1.3662,0,1.3602,1.3604,1.3611,1.3613,1.3616,1.3621,1.3624,1.3627,1.3631,1.3635,1.3638,1.3641,1.3646,1.365,1.3653,1.3659,1.3659,1.3662,1.3663,1.3662,1.3662,1.3664,1.3664,1.3663,1.3662,1.3662,1.3662,0,1.3598,1.3603,1.3607,1.3613,1.3615,1.3618,1.3624,1.3626,1.363,1.3635,1.3636,1.3642,1.3647,1.3651,1.3658,1.366,1.3667,1.3667,1.3665,1.3666,1.3669,1.3669,1.3676,1.3678,1.3671,1.3671,1.3671,0,1.3597,1.3599,1.3606,1.3609,1.3612,1.3617,1.362,1.3625,1.3628,1.3635,1.3637,1.3643,1.3648,1.3657,1.3662,1.3668,1.3669,1.3671,1.367,1.367,1.3671,1.3671,1.3672,1.3672,1.3672,1.3672,1.3672,0,1.3595,1.3597,1.3602,1.3608,1.3612,1.3617,1.3622,1.3624,1.3631,1.3634,1.3641,1.3645,1.3653,1.3659,1.3666,1.367,1.3672,1.3672,1.3673,1.3673,1.3673,1.3674,1.3667,1.3672,1.3672,1.3672,1.3672,1.3672,1.3593,1.3596,1.3602,1.3608,1.3613,1.3618,1.3622,1.3627,1.3632,1.3639,1.3642,1.3649,1.3656,1.3665,1.3669,1.3675,1.3676,1.3677,1.3677,1.3678,1.3679,1.3671,1.3676,1.3676,1.3676,1.3676,1.3676,0,1.3592,1.3597,1.3602,1.361,1.3615,1.3618,1.3624,1.3629,1.3635,1.3641,1.3646,1.3655,1.3662,1.3668,1.3676,1.3679,1.3681,1.3681,1.3681,1.3683,1.3677,1.3676,1.368,1.368,1.368,1.368,1.368,1.368,1.3592,1.3598,1.3602,1.3611,1.3616,1.3624,1.3627,1.3633,1.3638,1.3648,1.3654,1.3658,1.3665,1.3674,1.3681,1.3683,1.3686,1.3686,1.3688,1.3683,1.3683,1.3682,1.3681,1.3686,1.3686,1.3693,1.3693,1.3693]}]]